CAS-4B
1 42759U 17034B 20107.83263223 .00000229 00000-0 27419-4 0 9991
2 42759 43.0206 5.6078 0011611 356.2410 120.0151 15.09790138156657
CAS-4A
1 42761U 17034D 20107.90122126 .00000340 00000-0 34137-4 0 9997
2 42761 43.0209 4.5710 0012164 357.9783 57.1769 15.09869491156664
UCLSat
1 42765U 17036A 20107.41595128 .00001227 00000-0 54431-4 0 9999
2 42765 097.3077 163.3051 0009800 240.0613 119.9652 15.23389620157130
NIUSat
1 42766U 17036B 20107.72074285 .00000915 00000-0 43454-4 0 9996
2 42766 97.3073 161.2415 0014107 232.9402 127.0544 15.21612401156302
LituanicaSAT 2
1 42768U 17036D 20107.74175689 .00002042 00000-0 87449-4 0 9995
2 42768 97.3129 163.5042 0013447 228.3280 131.6808 15.23839523156443
Aalto 1
1 42775U 17036L 20107.64400018 .00000756 00000-0 36286-4 0 9992
2 42775 97.3055 161.5165 0012490 232.2625 127.7480 15.21751710156279
URSA MAIOR
1 42776U 17036M 20107.70630490 .00000822 00000-0 39022-4 0 9994
2 42776 97.3066 161.8354 0012302 231.6892 128.3239 15.21925022156296
Max Valier Sat
1 42778U 17036P 20107.43340812 .00000914 00000-0 42337-4 0 9997
2 42778 097.3118 162.7649 0010795 235.3364 124.6855 15.22509339156295
Pegasus
1 42784U 17036V 20107.42870500 .00001125 00000-0 50587-4 0 9996
2 42784 097.3082 163.0315 0010355 241.2919 118.7278 15.23085475156339
NUDATSat
1 42787U 17036Y 20107.60332005 .00001702 00000-0 72383-4 0 9991
2 42787 097.3128 164.4569 0009478 242.6722 117.3551 15.24330641156271
SUCHAI 1
1 42788U 17036Z 20107.40917914 .00001332 00000-0 58482-4 0 9991
2 42788 097.3089 163.5446 0009923 239.3365 120.6894 15.23610200156439
SKCUBE
1 42789U 17036AA 20107.25198361 .00001243 00000-0 54988-4 0 9990
2 42789 097.3084 163.2625 0009787 240.2699 119.7565 15.23462315156324
VZLUSAT 1
1 42790U 17036AB 20107.39492811 .00001668 00000-0 71038-4 0 9990
2 42790 097.3107 164.2502 0009358 236.9152 123.1188 15.24320524156390
VENTA 1
1 42791U 17036AC 20107.42252917 .00001148 00000-0 51060-4 0 9992
2 42791 097.3082 163.4740 0009454 240.0831 119.9467 15.23453053156346
Robusta 1B
1 42792U 17036AD 20107.67311743 .00001229 00000-0 54138-4 0 9992
2 42792 97.3086 163.9051 0009380 238.7907 121.2412 15.23649731156411
D-SAT
1 42794U 17036AF 20107.64403979 .00000362 00000-0 36773-4 0 9996
2 42794 97.5007 143.3395 0125469 210.6875 148.6965 14.91249432153489
TechnoSat
1 42829U 17042E 20107.67918238 .00000188 00000-0 24257-4 0 9994
2 42829 97.5286 352.3306 0015422 126.8842 233.3793 14.91079517150089
QIKCOM-1
1 42983U 98067NF 20107.73521560 .00004781 00000-0 61704-4 0 9997
2 42983 51.6379 256.5167 0003756 179.2310 180.8690 15.61087818140647
AO-91
1 43017U 17073E 20107.75158685 .00000337 00000-0 32311-4 0 9995
2 43017 97.7249 22.3636 0255713 251.3132 106.0167 14.78882447130049
EcAMSat
1 43019U 98067NG 20107.66429826 .00009267 00000-0 96742-4 0 9996
2 43019 51.6398 244.8682 0003730 169.4695 190.6380 15.65305628223115
PICSAT
1 43132U 18004X 20107.21526463 .00001332 00000-0 57483-4 0 9995
2 43132 097.4511 178.9301 0007889 272.4477 087.5857 15.24264557125577
AO-92
1 43137U 18004AC 20107.70191091 .00001003 00000-0 44362-4 0 9996
2 43137 97.4497 179.2715 0007487 273.1508 86.8873 15.24005764125635
TianYi 2
1 43155U 18008A 20107.85211043 .00000796 00000-0 50524-4 0 9991
2 43155 97.4505 178.5019 0017724 6.5426 104.9622 15.11551213123617
Zhou Enlai
1 43156U 18008B 20107.86366345 .00001218 00000-0 76359-4 0 9993
2 43156 97.4555 178.3681 0014696 6.4294 104.7923 15.11088870123574
TianYi 6
1 43158U 18008D 20107.80175374 .00001065 00000-0 68089-4 0 9990
2 43158 97.4503 177.4417 0013816 4.2527 135.4705 15.10630033123510
S-Net G
1 43186U 18014G 20107.47773164 .00000265 00000-0 28192-4 0 9994
2 43186 097.6970 016.3116 0012367 074.6230 285.6358 14.96778960120424
S-Net H
1 43187U 18014H 20107.74495676 .00000284 00000-0 29889-4 0 9999
2 43187 97.6968 16.5548 0012365 73.7799 286.4782 14.96779065120462
S-Net J
1 43188U 18014J 20107.74481698 .00000278 00000-0 29282-4 0 9999
2 43188 97.6971 16.5820 0012339 73.8353 286.4225 14.96778792120466
S-Net K
1 43189U 18014K 20107.74521436 .00000294 00000-0 30684-4 0 9991
2 43189 97.6968 16.5507 0012363 73.8301 286.4280 14.96778277119013
FMN 1
1 43192U 18015A 20107.87273008 .00002231 00000-0 91061-4 0 9998
2 43192 97.4325 237.7054 0014454 310.7179 165.8501 15.25386256122515
Shaonian Xing
1 43199U 18015H 20107.81338712 .00001559 00000-0 64074-4 0 9999
2 43199 97.4110 236.0800 0015842 321.9356 183.5938 15.25604931122567
1KUNS-PF
1 43466U 98067NP 20107.73125490 .00121262 16480-4 40297-3 0 9996
2 43466 51.6278 217.8016 0005663 325.8597 34.2043 15.90104407110658
UBAKUSAT
1 43467U 98067NQ 20107.64025040 .00028541 00000-0 21326-3 0 9992
2 43467 51.6328 239.1872 0000343 215.7289 144.3686 15.72466951110377
EnduroSat One
1 43551U 98067NZ 20107.59192119 .00045784 00000-0 28729-3 0 9994
2 43551 51.6347 238.8345 0003963 247.2428 112.8153 15.76278575100600
EQUISat
1 43552U 98067PA 20107.60039042 .00028501 00000-0 22318-3 0 9998
2 43552 51.6350 245.7667 0004525 229.5646 130.4957 15.71343797100476
UiTMSat 1
1 43589U 98067PD 20107.59004039 .00035008 00000-0 25175-3 0 9998
2 43589 51.6322 244.7858 0004285 245.2583 114.7970 15.73251634 96221
Maya 1
1 43590U 98067PE 20107.64653616 .00035048 00000-0 25194-3 0 9992
2 43590 51.6323 244.4227 0004278 245.3412 114.7141 15.73260084 96167
Bhutan 1
1 43591U 98067PF 20107.62398466 .00034868 00000-0 24964-3 0 9993
2 43591 51.6329 244.3287 0004449 246.1503 113.9030 15.73356034 96168
SiriusSat 1
1 43595U 98067PG 20107.71547322 .00031378 00000-0 24468-3 0 9996
2 43595 51.6321 247.9040 0002070 217.8124 142.2729 15.71397961 95309
SiriusSat 2
1 43596U 98067PH 20107.70947866 .00030462 00000-0 23888-3 0 9991
2 43596 51.6328 248.6830 0002409 211.2695 148.8159 15.71279443 95290
Tanusha-3
1 43597U 98067PJ 20107.64577620 .00059661 00000-0 33967-3 0 9993
2 43597 51.6301 239.8184 0002745 269.1127 90.9559 15.78364766 95405
SurfSat
1 43614U 18070B 20107.70094575 .00002656 00000-0 69089-4 0 9996
2 43614 93.0220 129.0719 0013879 206.0967 153.9589 15.38895647 88982
CP-7 DAVE
1 43615U 18070C 20107.59678537 .00002401 00000-0 62752-4 0 9998
2 43615 93.0223 129.0227 0014043 206.1709 153.8837 15.38765607 88964
ELFIN-B
1 43616U 18070D 20107.55877848 .00003689 00000-0 92524-4 0 9990
2 43616 093.0187 128.9319 0014421 208.6748 151.3715 15.39983959088998
ELFIN-A
1 43617U 18070E 20107.53401347 .00003825 00000-0 95450-4 0 9999
2 43617 93.0240 129.3820 0013897 204.7124 155.3467 15.40137968 88993
STARS-Me Mother
1 43640U 98067PQ 20107.68102104 .00014715 00000-0 15619-3 0 9992
2 43640 51.6345 261.2872 0004209 160.9388 199.1765 15.64322629 87059
CubeBel 1
1 43666U 18083E 20107.85745370 .00001040 00000-0 54230-4 0 9997
2 43666 97.4946 134.9179 0013886 209.6637 141.5791 15.18142123 81262
Changshagaoxin
1 43669U 18083H 20107.88074355 .00000725 00000-0 39818-4 0 9995
2 43669 97.4826 133.3204 0010240 199.3857 160.6988 15.17204128 81199
